Philip, SD

8:59 AM MDT on July 22, 2017 (GMT -0600)
Philip

Weather History for KPHP - May, 2014

Change the Weather History Date:

Thursday, May 1, 2014

  Actual Average Record
Temperature  
Mean Temperature 46 °F 52 °F  
Max Temperature 61 °F 66 °F 94 °F (1992)
Min Temperature 31 °F 38 °F 16 °F (1950)
Degree Days  
Heating Degree Days 19 13  
Month to date heating degree days 19 13  
Since 1 July heating degree days 7181 6880  
Cooling Degree Days 0 0  
Month to date cooling degree days 0 0  
Year to date cooling degree days 0 3  
Moisture  
Dew Point 28 °F    
Average Humidity 56    
Maximum Humidity 85    
Minimum Humidity 27    
Precipitation  
Precipitation 0.00 in 0.09 in 2.60 in (1983)
Month to date precipitation 0.00 0.09  
Year to date precipitation 2.44 3.98  
Sea Level Pressure  
Sea Level Pressure 30.08 in    
Wind  
Wind Speed 15 mph (NW)    
Max Wind Speed 29 mph    
Max Gust Speed 36 mph    
Visibility 10 miles    
Events      
T = Trace of Precipitation, MM = Missing Value Source: NWS Daily Summary

Daily Weather History Graph

Daily Weather History Graph

Search for Another Location

Airport or City:

Trip Planner

Search our weather history database for the weather conditions in past years. The results will help you decide how hot, cold, wet, or windy it might be!

Date:

Astronomy

May. 01, 2014 Rise Set
Actual Time 5:37 AM MDT 7:49 PM MDT
Civil Twilight 5:06 AM MDT 8:21 PM MDT
Nautical Twilight 4:27 AM MDT 9:01 PM MDT
Astronomical Twilight 3:43 AM MDT 9:44 PM MDT
Moon 7:25 AM MDT (5/1) 10:27 PM MDT (5/1)
Length of Visible Light 15h 15m
Length of Day
14h 12m
Waxing Crescent, 7% of the Moon is Illuminated
May 1
Waxing Crescent
May 6
First Quarter
May 14
Full
May 21
Last Quarter
May 28
New

Hourly Weather History & Observations

Time (MDT) Temp. Windchill Dew Point Humidity Pressure Visibility Wind Dir Wind Speed Gust Speed Precip Events Conditions
12:55 AM 37.0 °F 29.3 °F 26.1 °F 65% 30.14 in 10.0 mi NW 11.5 mph - N/A   Clear
1:55 AM 36.0 °F 27.5 °F 26.1 °F 67% 30.14 in 10.0 mi NW 12.7 mph - N/A   Clear
2:55 AM 35.1 °F 27.4 °F 26.1 °F 70% 30.13 in 10.0 mi NW 10.4 mph - N/A   Clear
3:55 AM 34.0 °F 26.0 °F 26.1 °F 73% 30.13 in 10.0 mi WNW 10.4 mph - N/A   Clear
4:55 AM 30.9 °F 23.5 °F 26.1 °F 82% 30.14 in 10.0 mi WNW 8.1 mph - N/A   Clear
5:55 AM 32.0 °F 24.2 °F 27.0 °F 82% 30.15 in 10.0 mi WNW 9.2 mph - N/A   Clear
6:55 AM 37.9 °F 28.9 °F 30.0 °F 73% 30.14 in 10.0 mi NW 16.1 mph - N/A   Clear
7:55 AM 44.1 °F 35.4 °F 30.0 °F 58% 30.13 in 10.0 mi NNW 21.9 mph - N/A   Clear
8:55 AM 48.0 °F - 26.1 °F 42% 30.13 in 10.0 mi NNW 21.9 mph 28.8 mph N/A   Clear
9:55 AM 51.1 °F - 27.0 °F 39% 30.12 in 10.0 mi North 23.0 mph 32.2 mph N/A   Clear
10:55 AM 54.0 °F - 28.0 °F 37% 30.12 in 10.0 mi NNW 24.2 mph 32.2 mph N/A   Scattered Clouds
11:55 AM 55.0 °F - 28.9 °F 37% 30.12 in 10.0 mi NW 25.3 mph 32.2 mph N/A   Mostly Cloudy
12:55 PM 54.0 °F - 28.9 °F 38% 30.11 in 10.0 mi NW 20.7 mph 31.1 mph N/A   Mostly Cloudy
1:55 PM 57.0 °F - 28.0 °F 33% 30.09 in 10.0 mi NNW 21.9 mph 27.6 mph N/A   Scattered Clouds
2:55 PM 59.0 °F - 28.9 °F 32% 30.06 in 10.0 mi NNW 17.3 mph 31.1 mph N/A   Scattered Clouds
3:55 PM 61.0 °F - 28.0 °F 29% 30.04 in 10.0 mi NNW 16.1 mph 34.5 mph N/A   Partly Cloudy
4:55 PM 61.0 °F - 27.0 °F 27% 30.03 in 10.0 mi NNW 17.3 mph 28.8 mph N/A   Clear
5:55 PM 60.1 °F - 27.0 °F 28% 30.03 in 10.0 mi NNW 19.6 mph - N/A   Clear
6:55 PM 57.9 °F - 28.0 °F 32% 30.01 in 10.0 mi North 10.4 mph - N/A   Clear
7:55 PM 46.9 °F - 32.0 °F 56% 30.01 in 10.0 mi NNW 9.2 mph - N/A   Clear
8:55 PM 42.1 °F 37.7 °F 30.9 °F 65% 30.02 in 10.0 mi NW 6.9 mph - N/A   Clear
9:55 PM 41.0 °F 36.4 °F 30.9 °F 67% 30.02 in 10.0 mi West 6.9 mph - N/A   Clear
10:55 PM 39.0 °F 32.8 °F 30.0 °F 70% 29.99 in 10.0 mi West 9.2 mph - N/A   Clear
11:55 PM 39.0 °F 32.3 °F 30.0 °F 70% 29.97 in 10.0 mi West 10.4 mph - N/A   Clear